Location: Nebula Knoll Observatory
(43.6666°N, 71.0000°W)
Time: 20:12:51
(UTC-04:00)

Daily predictions for brighter satellites

Satellite Brightness Start Highest point End
(mag) Time Altitude Azimuth Time Altitude Azimuth Time Altitude Azimuth
Gbstr 26 Del rocket 4.5 18:17:38 10° WNW 18:21:54 33° N 18:27:02 10° ENE
Meteor 1-16 Rocket 4.2 18:19:10 10° S 18:24:18 55° E 18:29:32 10° NNE
Meteor 2-15 4.4 18:19:59 10° N 18:26:07 77° E 18:32:13 10° SSE
CORIOLIS 4.5 18:25:42 10° S 18:31:04 76° WSW 18:36:31 10° NNW
YAOGAN 1 2.5 18:28:09 10° SSE 18:32:28 82° ENE 18:36:50 10° N
ALOS 2.9 18:28:30 10° SE 18:32:41 34° ENE 18:36:53 10° N
MONITOR-E 4.5 18:29:50 10° SSE 18:32:47 44° ENE 18:35:45 10° N
Cosmos 1484 Rocket 3.7 18:30:01 10° S 18:33:40 52° W 18:37:19 10° NNW
FENGYUN 3A 4.2 18:29:33 10° SE 18:34:30 38° ENE 18:39:28 10° N
GP-B 3.3 18:31:40 10° NNE 18:36:00 50° E 18:40:19 10° SSE
MOS 1 4.3 18:31:11 10° SSE 18:36:48 70° ENE 18:42:28 10° N
Meteor 2-14 Rocket 4.4 18:31:34 10° S 18:37:36 71° E 18:43:40 10° NNE
Cosmos 1703 3.9 18:36:06 10° N 18:39:44 34° ENE 18:43:20 10° SE
Meteor 2-16 Rocket 4.5 18:34:04 10° S 18:40:03 63° E 18:46:07 10° NNE
CZ-4 R/B 2.4 18:36:52 10° S 18:41:01 55° W 18:45:08 10° NNW
CZ-2C R/B 4.1 18:36:29 10° N 18:41:01 69° WNW 18:45:27 10° SSW
Landsat 4 4.5 18:38:50 10° N 18:42:30 56° WNW 18:46:08 10° SSW
Abrixas rocket 2.2 18:39:53 10° WSW 18:43:09 87° NW 18:46:10 12° ENE
Cosmos 2219 Rocket 3.8 18:41:33 10° N 18:44:50 15° NE 18:47:32 11° ENE
USA 234 4.4 18:41:01 10° ENE 18:46:32 30° N 18:52:03 10° NW
Cosmos 1624 Rocket 4.1 18:43:24 10° NNW 18:48:38 85° WSW 18:53:52 10° SSE
Cosmos 1400 Rocket 2.9 18:44:45 10° N 18:48:46 55° ENE 18:52:41 10° SSE
Cosmos-2242 3.4 18:45:19 10° SSW 18:49:34 67° W 18:53:48 10° N
Cosmos 1371 Rocket 4.5 18:45:33 10° NNW 18:50:55 69° WSW 18:56:13 10° S
Thor Agena Rocket 4.2 18:46:44 10° NE 18:51:14 30° E 18:55:40 10° SSE
SKYMED 2 3.5 18:49:46 10° NNE 18:54:08 80° ESE 18:58:28 10° S
BREEZE-M DEB (TANK) 3.9 18:39:36 10° WSW 18:54:30 82° NNW 18:58:15 15° ENE
SL-16 R/B 2.6 18:48:56 10° NNW 18:54:35 69° WSW 19:00:12 10° SSE
Tiangong 1 3.1 18:54:21 10° WSW 18:56:22 18° SSW 18:58:20 10° SSE
Meteor 1-28 Rocket 4.4 18:53:11 10° N 18:56:51 46° WNW 19:00:28 10° SSW
ERS-2 4.2 18:54:39 10° SSW 18:58:00 32° W 19:01:23 10° NNW
Cosmos 1743 Rocket 3.5 18:56:37 10° N 19:01:01 82° E 19:05:24 10° S
Iridium 4 Rocket 4.2 18:56:53 10° SSE 19:01:48 36° E 19:07:02 10° NNE
Cosmos 1908 3.9 19:00:19 10° SSE 19:03:51 34° E 19:07:25 10° NNE
Cosmos 2151 2.9 19:00:16 10° N 19:04:34 69° E 19:08:48 10° SSE
GRACE-2 3.7 19:03:00 10° SSE 19:05:31 51° E 19:08:03 10° N
Envisat 4.4 19:06:03 17° ENE 19:06:46 17° ENE 19:10:02 10° NNE
GRACE-1 3.6 19:04:46 10° SSE 19:07:19 58° E 19:09:53 10° N
Cosmos 1842 Rocket 3.5 19:04:58 10° S 19:09:25 80° E 19:13:54 10° N
H-2A R/B 3.2 19:08:08 10° SE 19:11:44 38° ENE 19:15:23 10° N
Resurs 01 Rocket 3.1 19:12:24 18° ENE 19:12:24 18° ENE 19:15:10 10° NNE
Cosmos 2237 Rocket 3.9 19:09:38 10° N 19:12:47 15° NE 19:13:50 14° NE
Cosmos 2366 rocket 4.2 19:08:16 10° SSW 19:14:30 76° W 19:20:43 10° N
Cosmos 2221 2.7 19:17:09 10° SSE 19:21:16 46° E 19:25:26 10° NNE
ISS -0.9 19:21:37 10° W 19:23:21 14° SW 19:25:05 10° SSW
Cosmos 1500 Rocket 3.7 19:19:04 10° NNW 19:23:26 75° W 19:27:44 10° S
FREGAT/IRIS 2.5 19:23:44 30° SE 19:24:58 61° ENE 19:27:57 10° N
CZ-2D R/B 4.5 19:26:21 25° NE 19:26:21 25° NE 19:28:55 10° N
SPOT 3 Rocket 4.4 19:21:21 10° S 19:26:24 52° W 19:31:31 10° NNW
Cosmos 158 Rocket 4.2 19:24:19 10° S 19:29:02 43° ESE 19:33:55 10° NNE
Cosmos 1315 Rocket 2.7 19:25:35 10° N 19:29:39 82° E 19:33:44 10° SSE
Cosmos 921 Rocket 2.9 19:26:41 10° NNW 19:31:11 75° ENE 19:34:56 14° SSE
COSMOS 2428 3.0 19:26:15 10° NNW 19:31:45 47° ENE 19:34:16 29° ESE
Geosat FO 4.5 19:30:40 25° SSE 19:32:38 83° ENE 19:36:16 10° NNW
Cosmos 1269 Rocket 4.5 19:30:12 10° SSE 19:34:58 36° ESE 19:36:21 31° ENE
Cosmos 2333 Rocket 3.1 19:30:15 10° N 19:35:12 29° NE 19:36:01 28° ENE
HJ-1C 3.5 19:36:22 54° ENE 19:36:22 54° ENE 19:39:37 10° N
NOSS 3 (A) 4.4 19:33:59 10° SW 19:36:45 88° WNW 19:36:59 74° NNE
MOS 1-B Rocket 4.2 19:35:00 27° ESE 19:37:34 43° ENE 19:43:12 10° N
Cosmos 2360 Rocket 2.4 19:33:18 10° NNW 19:38:57 74° WSW 19:44:36 10° SSE
Cosmos 2058 3.9 19:35:12 10° NNW 19:39:15 48° W 19:43:14 10° SSW
Cosmos 1833 4.3 19:33:57 10° SSW 19:39:40 81° WNW 19:45:21 10° NNE
Cosmos 2098 Rocket 3.2 19:37:14 10° S 19:41:17 56° E 19:46:28 10° NNE
FengYun 1-2 T 4.1 19:36:18 10° SSE 19:41:49 85° ENE 19:47:20 10° NNW
COSMO-SKYMED 1 4.4 19:38:12 10° N 19:42:05 32° WNW 19:45:56 10° SW
RESURS DK-1 2.6 19:40:28 10° NNW 19:44:35 68° WSW 19:47:05 23° SSE
Cosmos 2322 Rocket 4.3 19:40:04 10° NW 19:44:42 27° WSW 19:49:19 10° SSW
Cosmos 2219 3.6 19:39:27 10° S 19:44:45 40° ESE 19:45:36 38° E
Cosmos 1626 4.4 19:42:46 10° NNW 19:45:56 26° W 19:49:04 10° SSW
Cosmos 468 4.3 19:41:14 10° SSW 19:46:25 74° ESE 19:51:39 10° NNE
SL-24 R/B - RUBIN 2 3.8 19:42:50 10° NW 19:47:44 73° WSW 19:49:57 29° SSE
Cosmos 1821 Rocket 3.8 19:46:00 10° S 19:52:06 73° E 19:58:19 10° NNE
Cosmos 1000 Rocket 4.4 19:46:19 10° N 19:52:37 88° E 19:58:48 10° S
USA 267 3.2 19:49:38 29° ENE 19:53:07 63° SE 19:59:35 10° SW
BREEZE-M DEB (TANK) 3.3 19:51:40 10° WSW 19:52:36 25° WSW 19:52:36 25° WSW
Cosmos 1452 Rocket 4.0 19:48:49 10° NNW 19:53:59 60° WSW 19:59:08 10° S
BREEZE M DEB (TANK) 4.4 19:35:40 10° WNW 19:55:20 67° N 19:57:34 40° ENE
SL-8 R/B 3.6 19:50:51 10° WSW 19:55:41 76° SSE 19:56:27 61° E
Lacrosse 5 rocket 3.7 19:52:49 10° WNW 19:55:43 17° NNW 19:57:43 13° NNE
SJ-6B 2.7 19:55:11 46° S 19:56:12 77° WSW 19:59:58 10° NNW
Sich 1 3.6 19:54:56 10° N 19:58:06 42° NNE 19:58:06 42° NNE
Cosmos 2239 Rocket 4.3 19:55:02 10° S 20:01:10 85° E 20:07:20 10° N
Cosmos 1805 Rocket 3.4 19:57:08 10° N 20:01:31 89° WNW 20:02:32 54° S
Cosmos 1934 Rocket 3.9 19:55:17 10° S 20:01:33 66° E 20:07:52 10° NNE
Atlas Centaur 2 3.8 19:59:24 10° SW 20:03:28 21° S 20:04:35 20° SSE
Cosmos 2322 4.3 19:58:43 10° NNW 20:04:20 58° WSW 20:09:19 13° S
DELTA 2 R/B (1) 4.0 19:59:27 10° W 20:04:52 51° S 20:05:56 45° SSE
Gbstr 26 Del rocket 3.8 20:04:28 10° NW 20:09:39 62° NNE 20:10:30 55° ENE
Cosmos 1666 Rocket 4.2 20:05:34 10° N 20:08:35 43° N 20:08:35 43° N
ALOS 4.4 20:06:14 10° SSW 20:10:09 26° W 20:14:05 10° NW
Spot 2 Rocket 3.7 20:11:22 54° NE 20:11:22 54° NE 20:15:41 10° N
BREEZE M DEB (TANK) 3.5 20:08:06 10° WNW 20:10:26 30° NW 20:10:26 30° NW
CZ-4C R/B 2.7 20:08:55 10° SSW 20:12:17 39° S 20:12:17 39° S
Cosmos 2123 Rocket 3.8 20:12:30 10° N 20:18:46 81° E 20:20:47 46° SSE
Abrixas rocket 4.5 20:16:59 10° WNW 20:18:42 24° NW 20:18:42 24° NW
Cosmos 1633 Rocket 4.3 20:15:43 10° N 20:18:09 32° N 20:18:09 32° N
Cosmos 1605 Rocket 4.2 20:27:39 50° NNE 20:27:39 50° NNE 20:32:12 10° NNE
USA 234 3.4 20:28:02 53° NE 20:28:43 55° NNE 20:35:05 10° NW
Cosmos 2219 Rocket 2.1 20:24:04 10° NNW 20:29:17 75° N 20:29:17 75° N
Cosmos 1048 Rocket 4.5 20:31:39 10° SW 20:36:42 56° WNW 20:38:42 34° N
Envisat 3.6 20:46:17 53° NW 20:46:17 53° NW 20:50:20 10° NNW
Resurs 01 Rocket 3.2 20:49:59 31° NW 20:49:59 31° NW 20:52:35 10° NNW
Cosmos 2237 Rocket 3.2 20:52:09 10° NNW 20:55:40 39° NNW 20:55:40 39° NNW
SL-16 R/B 4.1 21:00:42 10° NNW 21:02:44 21° N 21:02:44 21° N
COSMOS 2428 4.4 21:11:02 10° NW 21:15:43 27° WSW 21:16:20 27° WSW
Cosmos 2333 Rocket 3.5 21:14:11 10° NW 21:18:02 38° WNW 21:18:02 38° WNW
USA 267 4.1 21:37:01 45° NW 21:37:01 45° NW 21:42:13 10° W
